Year,Month,Day,Hour,Minute,Value (Times are PST for temperature in C)
2009,05,15,07,06,7.10
2009,05,15,07,07,7.10
2009,05,15,07,08,7.10
2009,05,15,07,09,7.10
2009,05,15,07,10,7.20
2009,05,15,07,11,7.20
2009,05,15,07,12,7.20
2009,05,15,07,13,7.20
2009,05,15,07,14,7.30
2009,05,15,07,15,7.30
2009,05,15,07,16,7.40
2009,05,15,07,17,7.50
2009,05,15,07,18,7.60
2009,05,15,07,19,7.60
2009,05,15,07,20,7.70
2009,05,15,07,21,7.70
2009,05,15,07,22,7.70
2009,05,15,07,23,7.80
2009,05,15,07,24,7.80
2009,05,15,07,25,7.90
2009,05,15,07,26,8.00
2009,05,15,07,27,8.10
2009,05,15,07,28,8.10
2009,05,15,07,29,8.20
2009,05,15,07,30,8.20
2009,05,15,07,31,8.30
2009,05,15,07,32,8.30
2009,05,15,07,33,8.40
2009,05,15,07,34,8.50
2009,05,15,07,35,8.50
2009,05,15,07,36,8.50
2009,05,15,07,37,8.60
2009,05,15,07,38,8.70
2009,05,15,07,39,8.70
2009,05,15,07,40,8.80
2009,05,15,07,41,8.80
2009,05,15,07,42,8.90
2009,05,15,07,43,8.90
2009,05,15,07,44,9.00
2009,05,15,07,45,9.00
2009,05,15,07,46,9.10
2009,05,15,07,47,9.10
2009,05,15,07,48,9.10
2009,05,15,07,49,9.20
2009,05,15,07,50,9.20
2009,05,15,07,51,9.20
2009,05,15,07,52,9.20
2009,05,15,07,53,9.30
2009,05,15,07,54,9.30
2009,05,15,07,55,9.30
2009,05,15,07,56,9.30
2009,05,15,07,57,9.40
2009,05,15,07,58,9.40
2009,05,15,07,59,9.50
2009,05,15,08,00,9.60
2009,05,15,08,01,9.60
2009,05,15,08,02,9.60
2009,05,15,08,03,9.70
2009,05,15,08,04,9.70
2009,05,15,08,05,9.80
2009,05,15,08,06,9.80
2009,05,15,08,07,9.90
2009,05,15,08,08,9.90
2009,05,15,08,09,10.00
2009,05,15,08,10,10.10
2009,05,15,08,11,10.20
2009,05,15,08,12,10.30
2009,05,15,08,13,10.30
2009,05,15,08,14,10.40
2009,05,15,08,15,10.50
2009,05,15,08,16,10.60
2009,05,15,08,17,10.60
2009,05,15,08,18,10.70
2009,05,15,08,19,10.80
2009,05,15,08,20,10.90
2009,05,15,08,21,10.90
2009,05,15,08,22,11.00
2009,05,15,08,23,11.00
2009,05,15,08,24,11.00
2009,05,15,08,25,11.10
2009,05,15,08,26,11.10
2009,05,15,08,27,11.20
2009,05,15,08,28,11.30
2009,05,15,08,29,11.30
2009,05,15,08,30,11.40
2009,05,15,08,31,11.40
2009,05,15,08,32,11.40
2009,05,15,08,33,11.40
2009,05,15,08,34,11.40
2009,05,15,08,35,11.40
2009,05,15,08,36,11.40
2009,05,15,08,37,11.40
2009,05,15,08,38,11.50
2009,05,15,08,39,11.50
2009,05,15,08,40,11.50
2009,05,15,08,41,11.60
2009,05,15,08,42,11.60
2009,05,15,08,43,11.70
2009,05,15,08,44,11.70
2009,05,15,08,45,11.70
2009,05,15,08,46,11.70
2009,05,15,08,47,11.70
2009,05,15,08,48,11.70
2009,05,15,08,49,11.60
2009,05,15,08,50,11.60
2009,05,15,08,51,11.60
2009,05,15,08,52,11.60
2009,05,15,08,53,11.60
2009,05,15,08,54,11.70
2009,05,15,08,55,11.70
2009,05,15,08,56,11.70
2009,05,15,08,57,11.80
2009,05,15,08,58,11.90
2009,05,15,08,59,11.90
2009,05,15,09,00,12.00
2009,05,15,09,01,12.00
2009,05,15,09,02,12.00
2009,05,15,09,03,11.90
2009,05,15,09,04,11.90
2009,05,15,09,05,11.90
2009,05,15,09,06,11.80
2009,05,15,09,07,11.70
2009,05,15,09,08,11.70
2009,05,15,09,09,11.70
2009,05,15,09,10,11.80
2009,05,15,09,11,11.80
2009,05,15,09,12,11.90
2009,05,15,09,13,11.90
2009,05,15,09,14,11.90
2009,05,15,09,15,11.90
2009,05,15,09,16,11.80
2009,05,15,09,17,11.70
2009,05,15,09,18,11.60
2009,05,15,09,19,11.40
2009,05,15,09,20,11.30
2009,05,15,09,21,11.20
2009,05,15,09,22,11.20
2009,05,15,09,23,11.20
2009,05,15,09,24,11.10
2009,05,15,09,25,11.10
2009,05,15,09,26,11.10
2009,05,15,09,27,11.10
2009,05,15,09,28,11.00
2009,05,15,09,29,11.00
2009,05,15,09,30,11.00
2009,05,15,09,31,11.00
2009,05,15,09,32,11.00
2009,05,15,09,33,11.00
2009,05,15,09,34,11.00
2009,05,15,09,35,11.10
2009,05,15,09,36,11.20
2009,05,15,09,37,11.30
2009,05,15,09,38,11.30
2009,05,15,09,39,11.40
2009,05,15,09,40,11.50
2009,05,15,09,41,11.40
2009,05,15,09,42,11.40
2009,05,15,09,43,11.40
2009,05,15,09,44,11.40
2009,05,15,09,45,11.40
2009,05,15,09,46,11.40
2009,05,15,09,47,11.40
2009,05,15,09,48,11.30
2009,05,15,09,49,11.30
2009,05,15,09,50,11.40
2009,05,15,09,51,11.50
2009,05,15,09,52,11.50
2009,05,15,09,53,11.60
2009,05,15,09,54,11.60
2009,05,15,09,55,11.60
2009,05,15,09,56,11.60
2009,05,15,09,57,11.60
2009,05,15,09,58,11.60
2009,05,15,09,59,11.60
2009,05,15,10,00,11.60
2009,05,15,10,01,11.70
2009,05,15,10,02,11.60
2009,05,15,10,03,11.60
2009,05,15,10,04,11.60
2009,05,15,10,05,11.60
2009,05,15,10,06,11.60
2009,05,15,10,07,11.70
2009,05,15,10,08,11.80
2009,05,15,10,09,11.80
2009,05,15,10,10,11.80
2009,05,15,10,11,11.90
2009,05,15,10,12,11.90
2009,05,15,10,13,11.90
2009,05,15,10,14,11.90
2009,05,15,10,15,12.00
2009,05,15,10,16,12.00
2009,05,15,10,17,12.00
2009,05,15,10,18,12.00
2009,05,15,10,19,11.90
2009,05,15,10,20,11.90
2009,05,15,10,21,12.00
2009,05,15,10,22,12.00
2009,05,15,10,23,12.10
2009,05,15,10,24,12.20
2009,05,15,10,25,12.20
2009,05,15,10,26,12.20
2009,05,15,10,27,12.30
2009,05,15,10,28,12.40
2009,05,15,10,29,12.40
2009,05,15,10,30,12.50
2009,05,15,10,31,12.60
2009,05,15,10,32,12.70
2009,05,15,10,33,12.70
2009,05,15,10,34,12.70
2009,05,15,10,35,12.70
2009,05,15,10,36,12.70
2009,05,15,10,37,12.70
2009,05,15,10,38,12.70
2009,05,15,10,39,12.70
2009,05,15,10,40,12.70
2009,05,15,10,41,12.70
2009,05,15,10,42,12.70
2009,05,15,10,43,12.70
2009,05,15,10,44,12.70
2009,05,15,10,45,12.60
2009,05,15,10,46,12.60
2009,05,15,10,47,12.60
2009,05,15,10,48,12.60
2009,05,15,10,49,12.70
2009,05,15,10,50,12.70
2009,05,15,10,51,12.70
2009,05,15,10,52,12.70
2009,05,15,10,53,12.70
2009,05,15,10,54,12.80
2009,05,15,10,55,12.80
2009,05,15,10,56,12.80
2009,05,15,10,57,12.90
2009,05,15,10,58,12.90
2009,05,15,10,59,12.90
2009,05,15,11,00,13.00
2009,05,15,11,01,13.00
2009,05,15,11,02,13.10
2009,05,15,11,03,13.10
2009,05,15,11,04,13.00
2009,05,15,11,05,13.00
2009,05,15,11,06,12.90
2009,05,15,11,07,12.90
2009,05,15,11,08,13.00
2009,05,15,11,09,13.00
2009,05,15,11,10,13.00
2009,05,15,11,11,13.00
2009,05,15,11,12,13.10
2009,05,15,11,13,13.00
2009,05,15,11,14,13.00
2009,05,15,11,15,12.90
2009,05,15,11,16,12.90
2009,05,15,11,17,12.90
2009,05,15,11,18,13.00
2009,05,15,11,19,13.00
2009,05,15,11,20,13.10
2009,05,15,11,21,13.10
2009,05,15,11,22,13.00
2009,05,15,11,23,13.00
2009,05,15,11,24,13.00
2009,05,15,11,25,13.10
2009,05,15,11,26,13.10
2009,05,15,11,27,13.10
2009,05,15,11,28,13.10
2009,05,15,11,29,13.10
2009,05,15,11,30,13.10
2009,05,15,11,31,13.20
2009,05,15,11,32,13.30
2009,05,15,11,33,13.40
2009,05,15,11,34,13.40
2009,05,15,11,35,13.40
2009,05,15,11,36,13.40
2009,05,15,11,37,13.30
2009,05,15,11,38,13.30
2009,05,15,11,39,13.30
2009,05,15,11,40,13.30
2009,05,15,11,41,13.30
2009,05,15,11,42,13.30
2009,05,15,11,43,13.30
2009,05,15,11,44,13.30
2009,05,15,11,45,13.30
2009,05,15,11,46,13.30
2009,05,15,11,47,13.30
2009,05,15,11,48,13.40
2009,05,15,11,49,13.40
2009,05,15,11,50,13.40
2009,05,15,11,51,13.40
2009,05,15,11,52,13.40
2009,05,15,11,53,13.30
2009,05,15,11,54,13.40
2009,05,15,11,55,13.50
2009,05,15,11,56,13.60
2009,05,15,11,57,13.70
2009,05,15,11,58,13.70
2009,05,15,11,59,13.70
2009,05,15,12,00,13.70
2009,05,15,12,01,13.80
2009,05,15,12,02,13.80
2009,05,15,12,03,13.80
2009,05,15,12,04,13.80
2009,05,15,12,05,13.80
2009,05,15,12,06,13.90
2009,05,15,12,07,13.90
2009,05,15,12,08,13.90
2009,05,15,12,09,13.80
2009,05,15,12,10,13.70
2009,05,15,12,11,13.80
2009,05,15,12,12,13.90
2009,05,15,12,13,14.00
2009,05,15,12,14,14.10
2009,05,15,12,15,14.10
2009,05,15,12,16,14.20
2009,05,15,12,17,14.30
2009,05,15,12,18,14.40
2009,05,15,12,19,14.50
2009,05,15,12,20,14.50
2009,05,15,12,21,14.60
2009,05,15,12,22,14.50
2009,05,15,12,23,14.40
2009,05,15,12,24,14.40
2009,05,15,12,25,14.30
2009,05,15,12,26,14.20
2009,05,15,12,27,14.10
2009,05,15,12,28,13.90
2009,05,15,12,29,13.70
2009,05,15,12,30,13.60
2009,05,15,12,31,13.60
2009,05,15,12,32,13.60
2009,05,15,12,33,13.50
2009,05,15,12,34,13.40
2009,05,15,12,35,13.30
2009,05,15,12,36,13.20
2009,05,15,12,37,13.30
2009,05,15,12,38,13.30
2009,05,15,12,39,13.40
2009,05,15,12,40,13.50
2009,05,15,12,41,13.70
2009,05,15,12,42,13.80
2009,05,15,12,43,13.80
2009,05,15,12,44,13.80
2009,05,15,12,45,13.70
2009,05,15,12,46,13.70
2009,05,15,12,47,13.80
2009,05,15,12,48,13.80
2009,05,15,12,49,13.80
2009,05,15,12,50,13.80
2009,05,15,12,51,13.80
2009,05,15,12,52,13.80
2009,05,15,12,53,13.90
2009,05,15,12,54,13.90
2009,05,15,12,55,13.90
2009,05,15,12,56,14.00
2009,05,15,12,57,14.00
2009,05,15,12,58,13.90
2009,05,15,12,59,13.80
2009,05,15,13,00,13.70
2009,05,15,13,01,13.80
2009,05,15,13,02,13.80
2009,05,15,13,03,13.80
2009,05,15,13,04,13.80
2009,05,15,13,05,14.00
2009,05,15,13,06,14.00
2009,05,15,13,07,13.90
2009,05,15,13,08,13.90
2009,05,15,13,09,13.90
2009,05,15,13,10,13.90
2009,05,15,13,11,14.00
2009,05,15,13,12,14.10
2009,05,15,13,13,14.10
2009,05,15,13,14,14.00
2009,05,15,13,15,14.00
2009,05,15,13,16,14.00
2009,05,15,13,17,14.00
2009,05,15,13,18,14.10
2009,05,15,13,19,14.10
2009,05,15,13,20,14.10
2009,05,15,13,21,14.20
2009,05,15,13,22,14.10
2009,05,15,13,23,14.10
2009,05,15,13,24,14.00
2009,05,15,13,25,14.00
2009,05,15,13,26,13.90
2009,05,15,13,27,14.00
2009,05,15,13,28,14.10
2009,05,15,13,29,14.10
2009,05,15,13,30,14.10
2009,05,15,13,31,14.10
2009,05,15,13,32,14.20
2009,05,15,13,33,14.20
2009,05,15,13,34,14.20
2009,05,15,13,35,14.20
2009,05,15,13,36,14.20
2009,05,15,13,37,14.20
2009,05,15,13,38,14.20
2009,05,15,13,39,14.20
2009,05,15,13,40,14.20
2009,05,15,13,41,14.20
2009,05,15,13,42,14.10
2009,05,15,13,43,14.00
2009,05,15,13,44,14.00
2009,05,15,13,45,14.10
2009,05,15,13,46,14.20
2009,05,15,13,47,14.40
2009,05,15,13,48,14.50
2009,05,15,13,49,14.40
2009,05,15,13,50,14.50
2009,05,15,13,51,14.40
2009,05,15,13,52,14.40
2009,05,15,13,53,14.40
2009,05,15,13,54,14.40
2009,05,15,13,55,14.50
2009,05,15,13,56,14.50
2009,05,15,13,57,14.60
2009,05,15,13,58,14.60
2009,05,15,13,59,14.60
2009,05,15,14,00,14.60
2009,05,15,14,01,14.70
2009,05,15,14,02,14.80
2009,05,15,14,03,14.80
2009,05,15,14,04,14.80
2009,05,15,14,05,14.90
2009,05,15,14,06,15.00
2009,05,15,14,07,15.00
2009,05,15,14,08,15.00
2009,05,15,14,09,15.00
2009,05,15,14,10,15.00
2009,05,15,14,11,15.00
2009,05,15,14,12,14.80
2009,05,15,14,13,14.80
2009,05,15,14,14,14.60
2009,05,15,14,15,14.50
2009,05,15,14,16,14.50
2009,05,15,14,17,14.40
2009,05,15,14,18,14.50
2009,05,15,14,19,14.60
2009,05,15,14,20,14.70
2009,05,15,14,21,14.60
2009,05,15,14,22,14.60
2009,05,15,14,23,14.60
2009,05,15,14,24,14.60
2009,05,15,14,25,14.60
2009,05,15,14,26,14.70
2009,05,15,14,27,14.80
2009,05,15,14,28,14.80
2009,05,15,14,29,14.80
2009,05,15,14,30,14.70
2009,05,15,14,31,14.60
2009,05,15,14,32,14.60
2009,05,15,14,33,14.60
2009,05,15,14,34,14.60
2009,05,15,14,35,14.60
2009,05,15,14,36,14.60
2009,05,15,14,37,14.70
2009,05,15,14,38,14.70
2009,05,15,14,39,14.60
2009,05,15,14,40,14.50
2009,05,15,14,41,14.50
2009,05,15,14,42,14.40
2009,05,15,14,43,14.40
2009,05,15,14,44,14.40
2009,05,15,14,45,14.40
2009,05,15,14,46,14.40
2009,05,15,14,47,14.40
2009,05,15,14,48,14.40
2009,05,15,14,49,14.40
2009,05,15,14,50,14.40
2009,05,15,14,51,14.40
2009,05,15,14,52,14.50
2009,05,15,14,53,14.60
2009,05,15,14,54,14.70
2009,05,15,14,55,14.70
2009,05,15,14,56,14.70
2009,05,15,14,57,14.70
2009,05,15,14,58,14.70
2009,05,15,14,59,14.70
2009,05,15,15,00,14.70
2009,05,15,15,01,14.70
2009,05,15,15,02,14.70
2009,05,15,15,03,14.80
2009,05,15,15,04,15.00
2009,05,15,15,05,15.00
2009,05,15,15,06,15.00
2009,05,15,15,07,15.00
2009,05,15,15,08,15.00
2009,05,15,15,09,15.00
2009,05,15,15,10,15.00
2009,05,15,15,11,15.00
2009,05,15,15,12,15.00
2009,05,15,15,13,15.00
2009,05,15,15,14,15.00
2009,05,15,15,15,15.00
2009,05,15,15,16,15.00
2009,05,15,15,17,15.00
2009,05,15,15,18,15.00
2009,05,15,15,19,15.00
2009,05,15,15,20,15.10
2009,05,15,15,21,15.20
2009,05,15,15,22,15.20
2009,05,15,15,23,15.20
2009,05,15,15,24,15.10
2009,05,15,15,25,15.00
2009,05,15,15,26,15.00
2009,05,15,15,27,15.00
2009,05,15,15,28,15.00
2009,05,15,15,29,15.00
2009,05,15,15,30,15.00
2009,05,15,15,31,15.00
2009,05,15,15,32,15.00
2009,05,15,15,33,15.00
2009,05,15,15,34,15.00
2009,05,15,15,35,15.10
2009,05,15,15,36,15.20
2009,05,15,15,37,15.20
2009,05,15,15,38,15.20
2009,05,15,15,39,15.20
2009,05,15,15,40,15.20
2009,05,15,15,41,15.20
2009,05,15,15,42,15.20
2009,05,15,15,43,15.10
2009,05,15,15,44,15.00
2009,05,15,15,45,15.00
2009,05,15,15,46,15.00
2009,05,15,15,47,15.00
2009,05,15,15,48,15.00
2009,05,15,15,49,15.00
2009,05,15,15,50,15.00
2009,05,15,15,51,15.00
2009,05,15,15,52,15.00
2009,05,15,15,53,14.90
2009,05,15,15,54,14.80
2009,05,15,15,55,14.70
2009,05,15,15,56,14.60
2009,05,15,15,57,14.50
2009,05,15,15,58,14.50
2009,05,15,15,59,14.50
2009,05,15,16,00,14.50
2009,05,15,16,01,14.40
2009,05,15,16,02,14.40
2009,05,15,16,03,14.30
2009,05,15,16,04,14.20
2009,05,15,16,05,14.20
2009,05,15,16,06,14.20
2009,05,15,16,07,14.20
2009,05,15,16,08,14.30
2009,05,15,16,09,14.30
2009,05,15,16,10,14.30
2009,05,15,16,11,14.30
2009,05,15,16,12,14.30
2009,05,15,16,13,14.30
2009,05,15,16,14,14.30
2009,05,15,16,15,14.30
2009,05,15,16,16,14.30
2009,05,15,16,17,14.30
2009,05,15,16,18,14.30
2009,05,15,16,19,14.40
2009,05,15,16,20,14.40
2009,05,15,16,21,14.40
2009,05,15,16,22,14.30
2009,05,15,16,23,14.30
2009,05,15,16,24,14.40
2009,05,15,16,25,14.40
2009,05,15,16,26,14.40
2009,05,15,16,27,14.50
2009,05,15,16,28,14.40
2009,05,15,16,29,14.40
2009,05,15,16,30,14.40
2009,05,15,16,31,14.40
2009,05,15,16,32,14.30
2009,05,15,16,33,14.30
2009,05,15,16,34,14.30
2009,05,15,16,35,14.40
2009,05,15,16,36,14.40
2009,05,15,16,37,14.40
2009,05,15,16,38,14.40
2009,05,15,16,39,14.40
2009,05,15,16,40,14.40
2009,05,15,16,41,14.40
2009,05,15,16,42,14.30
2009,05,15,16,43,14.30
2009,05,15,16,44,14.20
2009,05,15,16,45,14.20
2009,05,15,16,46,14.20
2009,05,15,16,47,14.20
2009,05,15,16,48,14.30
2009,05,15,16,49,14.30
2009,05,15,16,50,14.20
2009,05,15,16,51,14.20
2009,05,15,16,52,14.20
2009,05,15,16,53,14.20
2009,05,15,16,54,14.10
2009,05,15,16,55,14.10
2009,05,15,16,56,14.10
2009,05,15,16,57,14.10
2009,05,15,16,58,14.10
2009,05,15,16,59,14.10
2009,05,15,17,00,14.20
2009,05,15,17,01,14.20
2009,05,15,17,02,14.20
2009,05,15,17,03,14.20
2009,05,15,17,04,14.20
2009,05,15,17,05,14.20
2009,05,15,17,06,14.20
2009,05,15,17,07,14.10
2009,05,15,17,08,14.10
2009,05,15,17,09,14.10
2009,05,15,17,10,14.10
2009,05,15,17,11,14.10
2009,05,15,17,12,14.10
2009,05,15,17,13,14.20
2009,05,15,17,14,14.20
2009,05,15,17,15,14.30
2009,05,15,17,16,14.30
2009,05,15,17,17,14.30
2009,05,15,17,18,14.30
2009,05,15,17,19,14.30
2009,05,15,17,20,14.30
2009,05,15,17,21,14.20
2009,05,15,17,22,14.20
2009,05,15,17,23,14.20
2009,05,15,17,24,14.20
2009,05,15,17,25,14.30
2009,05,15,17,26,14.30
2009,05,15,17,27,14.40
2009,05,15,17,28,14.30
2009,05,15,17,29,14.40
2009,05,15,17,30,14.40
2009,05,15,17,31,14.40
2009,05,15,17,32,14.50
2009,05,15,17,33,14.50
2009,05,15,17,34,14.50
2009,05,15,17,35,14.60
2009,05,15,17,36,14.50
2009,05,15,17,37,14.40
2009,05,15,17,38,14.40
2009,05,15,17,39,14.30
2009,05,15,17,40,14.30
2009,05,15,17,41,14.30
2009,05,15,17,42,14.40
2009,05,15,17,43,14.40
2009,05,15,17,44,14.40
2009,05,15,17,45,14.40
2009,05,15,17,46,14.40
2009,05,15,17,47,14.30
2009,05,15,17,48,14.30
2009,05,15,17,49,14.30
2009,05,15,17,50,14.20
2009,05,15,17,51,14.20
2009,05,15,17,52,14.20
2009,05,15,17,53,14.20
2009,05,15,17,54,14.20
2009,05,15,17,55,14.20
2009,05,15,17,56,14.10
2009,05,15,17,57,14.10
2009,05,15,17,58,14.10
2009,05,15,17,59,14.00
2009,05,15,18,00,14.00
2009,05,15,18,01,14.00
2009,05,15,18,02,14.10
2009,05,15,18,03,14.10
2009,05,15,18,04,14.10
2009,05,15,18,05,14.10
2009,05,15,18,06,14.10
2009,05,15,18,07,14.10
2009,05,15,18,08,14.10
2009,05,15,18,09,14.10
2009,05,15,18,10,14.10
2009,05,15,18,11,14.10
2009,05,15,18,12,14.10
2009,05,15,18,13,14.10
2009,05,15,18,14,14.00
2009,05,15,18,15,14.00
2009,05,15,18,16,14.00
2009,05,15,18,17,13.90
2009,05,15,18,18,13.90
2009,05,15,18,19,13.90
2009,05,15,18,20,13.90
2009,05,15,18,21,13.90
2009,05,15,18,22,14.00
2009,05,15,18,23,14.00
2009,05,15,18,24,14.00
2009,05,15,18,25,14.00
2009,05,15,18,26,14.00
2009,05,15,18,27,14.10
2009,05,15,18,28,14.10
2009,05,15,18,29,14.20
2009,05,15,18,30,14.30
2009,05,15,18,31,14.30
2009,05,15,18,32,14.30
2009,05,15,18,33,14.30
2009,05,15,18,34,14.30
2009,05,15,18,35,14.30
2009,05,15,18,36,14.30
2009,05,15,18,37,14.30
2009,05,15,18,38,14.30
2009,05,15,18,39,14.40
2009,05,15,18,40,14.40
2009,05,15,18,41,14.40
2009,05,15,18,42,14.40
2009,05,15,18,43,14.30
2009,05,15,18,44,14.30
2009,05,15,18,45,14.30
2009,05,15,18,46,14.30
2009,05,15,18,47,14.30
2009,05,15,18,48,14.30
2009,05,15,18,49,14.20
2009,05,15,18,50,14.20
2009,05,15,18,51,14.20
2009,05,15,18,52,14.20
2009,05,15,18,53,14.20
2009,05,15,18,54,14.20
2009,05,15,18,55,14.10
2009,05,15,18,56,14.10
2009,05,15,18,57,14.10
2009,05,15,18,58,14.10
2009,05,15,18,59,14.10
2009,05,15,19,00,14.10
2009,05,15,19,01,14.10
2009,05,15,19,02,14.10
2009,05,15,19,03,14.10
2009,05,15,19,04,14.10
2009,05,15,19,05,14.10
2009,05,15,19,06,14.10
2009,05,15,19,07,14.10
2009,05,15,19,08,14.10
2009,05,15,19,09,14.10
2009,05,15,19,10,14.10
2009,05,15,19,11,14.10
2009,05,15,19,12,14.10
2009,05,15,19,13,14.10
2009,05,15,19,14,14.10
2009,05,15,19,15,14.00
2009,05,15,19,16,14.00
2009,05,15,19,17,14.00
2009,05,15,19,18,13.90
2009,05,15,19,19,13.90
2009,05,15,19,20,13.80
2009,05,15,19,21,13.80
2009,05,15,19,22,13.80
2009,05,15,19,23,13.80
2009,05,15,19,24,13.70
2009,05,15,19,25,13.70
2009,05,15,19,26,13.70
2009,05,15,19,27,13.60
2009,05,15,19,28,13.60
2009,05,15,19,29,13.60
2009,05,15,19,30,13.60
2009,05,15,19,31,13.60
2009,05,15,19,32,13.60
2009,05,15,19,33,13.60
2009,05,15,19,34,13.60
2009,05,15,19,35,13.60
2009,05,15,19,36,13.60
2009,05,15,19,37,13.60
2009,05,15,19,38,13.60
2009,05,15,19,39,13.50
2009,05,15,19,40,13.50
2009,05,15,19,41,13.50
2009,05,15,19,42,13.50
2009,05,15,19,43,13.40
2009,05,15,19,44,13.40
2009,05,15,19,45,13.40
2009,05,15,19,46,13.40
2009,05,15,19,47,13.40
2009,05,15,19,48,13.40
2009,05,15,19,49,13.40
2009,05,15,19,50,13.40
2009,05,15,19,51,13.40
2009,05,15,19,52,13.40
2009,05,15,19,53,13.40
